Weather History for Woodward, OK

Change the Weather History Date:

Wednesday, February 13, 2013

  Actual Average (KGAG) Record (KGAG)
Temperature  
Mean Temperature 30 °F -  
Max Temperature 44 °F 54 °F 83 °F (1954)
Min Temperature 17 °F 25 °F -4 °F (1948)
Degree Days  
Heating Degree Days 34    
Moisture  
Dew Point 25 °F    
Average Humidity 80    
Maximum Humidity 93    
Minimum Humidity 57    
Precipitation  
Precipitation 0.00 in - - ()
Sea Level Pressure  
Sea Level Pressure 30.02 in    
Wind  
Wind Speed 9 mph (SW)    
Max Wind Speed 13 mph    
Max Gust Speed -    
Visibility 10 miles    
Events      
Averages and records for this station are not official NWS values.
T = Trace of Precipitation, MM = Missing Value Source: NWS Daily Summary

Daily Weather History Graph

Daily Weather History Graph

Search for Another Location

Airport:

Trip Planner

Search our weather history database for the weather conditions in past years. The results will help you decide how hot, cold, wet, or windy it might be!

Date:

Astronomy

Feb. 13, 2013 Rise Set
Actual Time 7:27 AM CST 6:17 PM CST
Civil Twilight 7:01 AM CST 6:43 PM CST
Nautical Twilight 6:31 AM CST 7:13 PM CST
Astronomical Twilight 6:01 AM CST 7:43 PM CST
Moon 9:05 AM CST (2/13) 10:12 PM CST (2/13)
Length of Visible Light 11h 42m
Length of Day
10h 49m
Waxing Crescent, 14% of the Moon is Illuminated
Feb 13
Waxing Crescent
Feb 17
First Quarter
Feb 25
Full
Mar 4
Last Quarter
Mar 11
New

Hourly Weather History & Observations

Time (CST) Temp. Windchill Dew Point Humidity Pressure Visibility Wind Dir Wind Speed Gust Speed Precip Events Conditions
12:15 AM 23.0 °F 14.7 °F 21.2 °F 93% 30.07 in 10.0 mi SW 6.9 mph - N/A   Clear
12:35 AM 23.0 °F 13.9 °F 21.2 °F 93% 30.07 in 10.0 mi SW 8.1 mph - N/A   Clear
12:55 AM 23.0 °F 13.9 °F 21.2 °F 93% 30.07 in 10.0 mi SW 8.1 mph - N/A   Clear
1:15 AM 23.0 °F 13.9 °F 21.2 °F 93% 30.07 in 10.0 mi SW 8.1 mph - N/A   Clear
1:35 AM 23.0 °F 13.9 °F 21.2 °F 93% 30.05 in 10.0 mi SW 8.1 mph - N/A   Clear
1:55 AM 24.8 °F 15.3 °F 23.0 °F 93% 30.05 in 10.0 mi SW 9.2 mph - N/A   Clear
2:15 AM 24.8 °F 14.6 °F 23.0 °F 93% 30.05 in 10.0 mi SSW 10.4 mph - N/A   Clear
2:35 AM 24.8 °F 14.6 °F 23.0 °F 93% 30.04 in 10.0 mi SW 10.4 mph - N/A   Clear
2:55 AM 24.8 °F 14.6 °F 23.0 °F 93% 30.04 in 10.0 mi SW 10.4 mph - N/A   Clear
3:15 AM 23.0 °F 13.1 °F 21.2 °F 93% 30.04 in 10.0 mi SW 9.2 mph - N/A   Clear
3:35 AM 23.0 °F 13.1 °F 21.2 °F 93% 30.03 in 10.0 mi SW 9.2 mph - N/A   Clear
3:55 AM 23.0 °F 12.4 °F 21.2 °F 93% 30.02 in 10.0 mi SW 10.4 mph - N/A   Clear
4:15 AM 23.0 °F 11.7 °F 19.4 °F 86% 30.02 in 10.0 mi SW 11.5 mph - N/A   Clear
4:35 AM 21.2 °F 10.1 °F 19.4 °F 93% 30.02 in 10.0 mi SW 10.4 mph - N/A   Clear
4:55 AM 21.2 °F 10.1 °F 19.4 °F 93% 30.02 in 10.0 mi SW 10.4 mph - N/A   Clear
5:15 AM 21.2 °F 10.1 °F 17.6 °F 86% 30.02 in 10.0 mi SW 10.4 mph - N/A   Clear
5:35 AM 19.4 °F 7.9 °F 17.6 °F 93% 30.03 in 10.0 mi SW 10.4 mph - N/A   Clear
5:55 AM 19.4 °F 7.9 °F 15.8 °F 86% 30.03 in 10.0 mi SW 10.4 mph - N/A   Clear
6:15 AM 19.4 °F 8.6 °F 15.8 °F 86% 30.04 in 10.0 mi SW 9.2 mph - N/A   Clear
6:35 AM 19.4 °F 8.6 °F 15.8 °F 86% 30.04 in 10.0 mi SW 9.2 mph - N/A   Clear
6:55 AM 19.4 °F 8.6 °F 14.0 °F 80% 30.05 in 10.0 mi SW 9.2 mph - N/A   Clear
7:15 AM 17.6 °F 6.4 °F 14.0 °F 86% 30.05 in 10.0 mi SW 9.2 mph - N/A   Clear
7:35 AM 17.6 °F 7.3 °F 14.0 °F 86% 30.05 in 10.0 mi SW 8.1 mph - N/A   Clear
7:55 AM 17.6 °F 7.3 °F 14.0 °F 86% 30.05 in 10.0 mi SSW 8.1 mph - N/A   Clear
8:15 AM 19.4 °F 7.9 °F 17.6 °F 93% 30.05 in 10.0 mi SW 10.4 mph - N/A   Clear
8:35 AM 21.2 °F 10.1 °F 17.6 °F 86% 30.06 in 10.0 mi SW 10.4 mph - N/A   Clear
8:55 AM 23.0 °F 12.4 °F 19.4 °F 86% 30.07 in 10.0 mi SW 10.4 mph - N/A   Clear
9:15 AM 23.0 °F 12.4 °F 19.4 °F 86% 30.07 in 10.0 mi SW 10.4 mph - N/A   Clear
9:35 AM 26.6 °F 17.5 °F 21.2 °F 80% 30.07 in 10.0 mi SW 9.2 mph - N/A   Clear
9:55 AM 28.4 °F 19.7 °F 23.0 °F 80% 30.07 in 10.0 mi SW 9.2 mph - N/A   Clear
10:15 AM 28.4 °F 20.4 °F 23.0 °F 80% 30.07 in 10.0 mi SW 8.1 mph - N/A   Clear
10:35 AM 30.2 °F 21.9 °F 24.8 °F 80% 30.07 in 10.0 mi WSW 9.2 mph - N/A   Clear
10:55 AM 32.0 °F 23.6 °F 26.6 °F 80% 30.07 in 10.0 mi WSW 10.4 mph - N/A   Clear
11:15 AM 33.8 °F 26.4 °F 26.6 °F 75% 30.07 in 10.0 mi WSW 9.2 mph - N/A   Clear
11:35 AM 35.6 °F 29.9 °F 26.6 °F 70% 30.07 in 10.0 mi WSW 6.9 mph - N/A   Clear
11:55 AM 35.6 °F 29.9 °F 26.6 °F 70% 30.07 in 10.0 mi WSW 6.9 mph - N/A   Clear
12:15 PM 37.4 °F 31.4 °F 26.6 °F 65% 30.06 in 10.0 mi SW 8.1 mph - N/A   Clear
12:35 PM 37.4 °F 30.3 °F 28.4 °F 70% 30.05 in 10.0 mi SW 10.4 mph - N/A   Clear
12:55 PM 37.4 °F 30.3 °F 30.2 °F 75% 30.03 in 10.0 mi SW 10.4 mph - N/A   Clear
1:15 PM 37.4 °F 30.3 °F 30.2 °F 75% 30.02 in 10.0 mi SW 10.4 mph - N/A   Clear
1:35 PM 37.4 °F 30.3 °F 30.2 °F 75% 30.02 in 10.0 mi SW 10.4 mph - N/A   Clear
1:55 PM 39.2 °F 33.0 °F 30.2 °F 70% 30.01 in 10.0 mi SW 9.2 mph - N/A   Clear
2:15 PM 41.0 °F 35.2 °F 30.2 °F 65% 30.01 in 10.0 mi SW 9.2 mph - N/A   Clear
2:35 PM 41.0 °F 35.8 °F 30.2 °F 65% 30.00 in 10.0 mi SSW 8.1 mph - N/A   Clear
2:55 PM 42.8 °F 38.0 °F 32.0 °F 66% 30.00 in 10.0 mi SW 8.1 mph - N/A   Clear
3:15 PM 42.8 °F 38.6 °F 32.0 °F 66% 29.99 in 10.0 mi WSW 6.9 mph - N/A   Clear
3:35 PM 42.8 °F 38.0 °F 32.0 °F 66% 29.98 in 10.0 mi SW 8.1 mph - N/A   Clear
3:55 PM 44.6 °F 39.7 °F 32.0 °F 61% 29.99 in 10.0 mi SW 9.2 mph - N/A   Clear
4:15 PM 44.6 °F 39.2 °F 32.0 °F 61% 29.98 in 10.0 mi SW 10.4 mph - N/A   Clear
4:35 PM 44.6 °F 39.2 °F 32.0 °F 61% 29.98 in 10.0 mi SW 10.4 mph - N/A   Clear
4:55 PM 42.8 °F 38.0 °F 30.2 °F 61% 29.98 in 10.0 mi SW 8.1 mph - N/A   Clear
5:15 PM 42.8 °F 37.0 °F 30.2 °F 61% 29.97 in 10.0 mi SW 10.4 mph - N/A   Clear
5:35 PM 42.8 °F 38.6 °F 28.4 °F 57% 29.96 in 10.0 mi SW 6.9 mph - N/A   Clear
5:55 PM 41.0 °F 36.4 °F 28.4 °F 61% 29.96 in 10.0 mi WSW 6.9 mph - N/A   Clear
6:15 PM 37.4 °F 31.4 °F 26.6 °F 65% 29.97 in 10.0 mi West 8.1 mph - N/A   Clear
6:35 PM 35.6 °F 29.9 °F 28.4 °F 75% 29.98 in 10.0 mi West 6.9 mph - N/A   Clear
6:55 PM 35.6 °F 28.6 °F 26.6 °F 70% 29.97 in 10.0 mi WSW 9.2 mph - N/A   Clear
7:15 PM 33.8 °F 27.7 °F 26.6 °F 75% 29.97 in 10.0 mi WSW 6.9 mph - N/A   Clear
7:35 PM 33.8 °F 27.0 °F 28.4 °F 81% 29.98 in 10.0 mi SW 8.1 mph - N/A   Clear
7:55 PM 33.8 °F 25.8 °F 28.4 °F 81% 29.98 in 10.0 mi SW 10.4 mph - N/A   Clear
8:15 PM 33.8 °F 25.8 °F 28.4 °F 81% 29.99 in 10.0 mi SW 10.4 mph - N/A   Clear
8:35 PM 33.8 °F 25.8 °F 28.4 °F 81% 29.99 in 10.0 mi SW 10.4 mph - N/A   Clear
8:55 PM 32.0 °F 22.5 °F 28.4 °F 87% 29.99 in 10.0 mi SW 12.7 mph - N/A   Clear
9:15 PM 32.0 °F 23.0 °F 28.4 °F 87% 30.00 in 10.0 mi SW 11.5 mph - N/A   Clear
9:35 PM 32.0 °F 23.0 °F 26.6 °F 80% 30.00 in 10.0 mi SW 11.5 mph - N/A   Clear
9:55 PM 33.8 °F 24.8 °F 26.6 °F 75% 30.00 in 10.0 mi SW 12.7 mph - N/A   Clear
10:15 PM 32.0 °F 23.6 °F 26.6 °F 80% 30.01 in 10.0 mi SW 10.4 mph - N/A   Clear
10:35 PM 32.0 °F 22.5 °F 26.6 °F 80% 30.00 in 10.0 mi SSW 12.7 mph - N/A   Clear
10:55 PM 32.0 °F 23.0 °F 26.6 °F 80% 30.00 in 10.0 mi SW 11.5 mph - N/A   Clear
11:15 PM 32.0 °F 23.0 °F 26.6 °F 80% 30.01 in 10.0 mi SW 11.5 mph - N/A   Clear
11:35 PM 32.0 °F 23.6 °F 26.6 °F 80% 30.02 in 10.0 mi SW 10.4 mph - N/A   Clear
11:55 PM 32.0 °F 23.0 °F 26.6 °F 80% 30.02 in 10.0 mi SSW 11.5 mph - N/A   Clear